Regional Weather Roundup
Issued by NWS

Home | Current Version | Previous Version | Graphics & Text | Print | Product List | Glossary On
Versions: 1 2 3 4 5 6 7 8 9 10 11 12 13 14 15 16 17 18 19 20 21 22 23 24 25 26 27
000
ASUS45 KBOU 272307
RWRCO

WEATHER ROUNDUP FOR COLORADO
NATIONAL WEATHER SERVICE DENVER/BOULDER CO
500 PM MDT SAT MAY 27 2017

NOTE: "FAIR" INDICATES FEW OR NO CLOUDS BELOW 12000 FEET WITH NO
SIGNIFICANT WEATHER AND/OR OBSTRUCTIONS TO VISIBILITY.

COZ001>005-013-030-031-280000-
...NORTHWEST COLORADO...

CITY           SKY/WX    TMP DP  RH WIND       PRES   REMARKS
CRAIG          FAIR      61  28  28 N15       30.21S
HAYDEN         FAIR      52  36  54 E17       30.24R
MEEKER         PTSUNNY   58  28  32 N8        30.22R
RABBIT EARS PA NOT AVBL
STEAMBOAT SPGS NOT AVBL
WALDEN         NOT AVBL
$$

COZ006>008-011-280000-
...WEST CENTRAL VALLEYS...

CITY           SKY/WX    TMP DP  RH WIND       PRES   REMARKS
GRAND JUNCTION PTSUNNY   72  31  22 NE15      30.09S
MONTROSE       FAIR      67  23  19 NW12G28   30.13S
EAGLE          PTSUNNY   50  41  71 E12       30.25R
RIFLE          PTSUNNY   66  23  19 NW12      30.15R
DELTA          NOT AVBL
NUCLA          FAIR      72  19  14 NW15G23   30.15S
$$

COZ017>023-064>068-280000-
...SOUTHWEST COLORADO...

CITY           SKY/WX    TMP DP  RH WIND       PRES   REMARKS
DURANGO        PTSUNNY   67  23  19 NW17G28   30.12R
CORTEZ         FAIR      74  17  11 W10G20    30.10S
PAGOSA SPRINGS FAIR      67  16  14 W13G30    30.16R
TELLURIDE      PTSUNNY   55  12  17 W9G17     30.27S
WOLF CREEK PAS NOT AVBL
$$

COZ009-010-012-014-032>034-037-058>063-280000-
...CENTRAL COLORADO...

CITY           SKY/WX    TMP DP  RH WIND       PRES   REMARKS
ASPEN          FAIR      48  38  68 SE13      30.23R
BUENA VISTA    FAIR      53  28  38 NW28G39   30.18R
COPPER MTN     NOT AVBL
BERTHOUD PASS  NOT AVBL
COTTONWOOD PAS NOT AVBL
GUNNISON       FAIR      59  20  22 W16G26    30.17R
KREMMLING      NOT AVBL
LEADVILLE      LGT SNOW  34  29  82 SW7       30.31R WCI  28
SALIDA         NOT AVBL
SUNLIGHT       NOT AVBL
WILKERSON PASS NOT AVBL
$$

COZ069>075-280000-
...SAN LUIS VALLEY/SANGRE DE CRISTO MOUNTAINS...

CITY           SKY/WX    TMP DP  RH WIND       PRES   REMARKS
ALAMOSA        FAIR      70  23  17 W21G28    30.10S
DEL NORTE      NOT AVBL
LA VETA PASS   NOT AVBL
SAGUACHE       NOT AVBL
$$

COZ035-036-038>040-280000-
...NORTHERN COLORADO FRONT RANGE...

CITY           SKY/WX    TMP DP  RH WIND       PRES   REMARKS
DENVER INTL AP LGT RAIN  54  42  64 N12       30.19R
DMNS CITY PARK   N/A     56  39  53 N7        30.19R
AURORA         PTSUNNY   54  43  65 NW7       30.19S
FRONT RANGE AP PTSUNNY   55  45  67 N10       30.19R
ERIE MUNI ARPT NOT AVBL
BOULDER MUN AP NOT AVBL
CENTENNIAL     PTSUNNY   52  41  66 CALM      30.19S
BROOMFIELD     PTSUNNY   57  41  54 NW7       30.19
FORT COLLINS   LGT RAIN  54  44  69 S10       30.18R
LONGMONT       NOT AVBL
$$

COZ041-046-047-076>085-087-088-280000-
...PIKES PEAK/PALMER DIVIDE AND SOUTHERN FOOTHILLS...

CITY           SKY/WX    TMP DP  RH WIND       PRES   REMARKS
COLO. SPRINGS  LGT RAIN  48  43  82 N9        30.21R
A. F. ACADEMY  CLOUDY    45  41  87 N14       30.20R
SCHRIEVER AFB  LGT RAIN  47  41  80 N21       30.20R
CHEYENNE MTN   LGT RAIN  43  40  91 N12G23    30.14
ELLICOTT       PTSUNNY  N/A N/A N/A NE21G29   30.19R
FALCON         PTSUNNY   46  40  79 N13G20    30.22R
FORT CARSON    TSTM      48  41  76 N17       30.18R
LIMON          FAIR      52  46  80 N14       30.16F
MONUMENT HILL  NOT AVBL
CANON CITY     NOT AVBL
WALSENBURG     MOCLDY    55  50  82 NE23G30   30.15R
TRINIDAD       PTSUNNY   60  44  55 N28G37    30.09R
$$

COZ042>045-048>051-090-091-280000-
...NORTHEAST COLORADO...

CITY           SKY/WX    TMP DP  RH WIND       PRES   REMARKS
GREELEY ARPT   LGT RAIN  55  46  71 SW8       30.17R
AKRON          FAIR      56  47  71 W9        30.13R
BURLINGTON     RAIN      53  49  86 NW17      30.16R
WRAY           FAIR      61  48  63 W5        30.09S
YUMA           NOT AVBL
STERLING       NOT AVBL
HOLYOKE        NOT AVBL
FORT MORGAN    FAIR      63  38  39 N10G20    30.14R
$$

COZ086-089-092>099-280000-
...SOUTHEAST COLORADO...

CITY           SKY/WX    TMP DP  RH WIND       PRES   REMARKS
PUEBLO         LGT RAIN  52  45  77 N25G33    30.14R
LA JUNTA       LGT RAIN  51  47  86 N26G35    30.10F
LAMAR          PTSUNNY   65  47  52 N25G35    30.02R
SPRINGFIELD      N/A     67  51  56 NE17      29.98S
$$




USA.gov is the U.S. government's official web portal to all federal, state and local government web resources and services.